Location: Bonny Doon Airfield
(37.0704°N, 122.1252°W)
Time: 09:58:27
(UTC-07:00)

BREEZE M DEB (TANK) - Visible Passes

Search period start: 02 September 2015 00:00
Search period end: 12 September 2015 00:00
Orbit: 313 x 13780 km, 49.6° (Epoch: 31 August)

Date Brightness Start Highest point End Pass type
(mag) Time Alt. Az. Time Alt. Az. Time Alt. Az.
02 Sep 9.1 19:03:14 10° NW 20:38:30 47° WSW 21:43:33 10° SSW visible
03 Sep 9.7 21:14:54 10° NW 22:39:51 18° W 23:06:38 10° WSW visible
04 Sep 9.1 18:16:30 10° NW 19:48:32 56° WSW 21:01:52 10° S visible
05 Sep 9.5 20:23:01 10° NW 21:53:04 25° WSW 22:35:08 10° SW visible
06 Sep 9.1 17:30:21 10° NW 18:57:09 64° WSW 20:19:15 10° S visible
07 Sep 9.4 19:33:37 10° NW 21:05:23 33° WSW 21:58:59 10° SW visible
09 Sep 9.4 18:45:39 10° NW 20:16:42 41° WSW 21:20:06 10° SSW visible
10 Sep 10.2 21:02:48 10° WNW 22:18:21 12° W 22:26:22 10° W visible
11 Sep 9.3 17:58:38 10° NW 19:26:54 49° WSW 20:39:26 10° SSW visible
